,,Stat6,,Stat2,,Stat8,,Stat9,,Stat10,,Wind1,,Wind1,
time,status,PA1M_AVG,status,PR1M_SUM,status,RH1M_AVG,status,SR1M_AVG,status,TA1M_AVG,status,W1dAve1m,status,W1sAve1m,
2004-12-11, 00:00:00,VALID,918.769,VALID,0,VALID,100,VALID,0,VALID,19.7529,VALID,59,VALID,0.610547,
2004-12-11, 00:01:00,VALID,918.778,VALID,0,VALID,100,VALID,0.0169808,VALID,19.7499,VALID,59,VALID,0.629084,
2004-12-11, 00:02:00,VALID,918.768,VALID,0,VALID,100,VALID,0,VALID,19.7725,VALID,72,VALID,0.688021,
2004-12-11, 00:03:00,VALID,918.763,VALID,0,VALID,100,VALID,0,VALID,19.7917,VALID,88,VALID,0.714286,
2004-12-11, 00:04:00,VALID,918.741,VALID,0,VALID,100,VALID,-0.0169808,VALID,19.8182,VALID,94,VALID,0.81686,
2004-12-11, 00:05:00,VALID,918.721,VALID,0,VALID,100,VALID,-0.0169808,VALID,19.8468,VALID,94,VALID,0.881836,
2004-12-11, 00:06:00,VALID,918.69,VALID,0,VALID,100,VALID,0,VALID,19.8562,VALID,95,VALID,0.821555,
2004-12-11, 00:07:00,VALID,918.674,VALID,0,VALID,100,VALID,0.0169808,VALID,19.8538,VALID,103,VALID,0.613281,
2004-12-11, 00:08:00,VALID,918.665,VALID,0,VALID,100,VALID,0,VALID,19.8374,VALID,103,VALID,0.572311,
2004-12-11, 00:09:00,VALID,918.654,VALID,0,VALID,100,VALID,0,VALID,19.8339,VALID,103,VALID,0.589844,
2004-12-11, 00:10:00,VALID,918.652,VALID,0,VALID,100,VALID,0.0169808,VALID,19.8371,VALID,103,VALID,0.680889,
2004-12-11, 00:11:00,VALID,918.658,VALID,0,VALID,100,VALID,0.0169808,VALID,19.8336,VALID,103,VALID,0.68388,
2004-12-11, 00:12:00,VALID,918.645,VALID,0,VALID,100,VALID,0,VALID,19.8272,VALID,103,VALID,0.571403,
2004-12-11, 00:13:00,VALID,918.641,VALID,0,VALID,100,VALID,0,VALID,19.8411,VALID,95,VALID,0.669457,
2004-12-11, 00:14:00,VALID,918.642,VALID,0,VALID,100,VALID,0,VALID,19.8344,VALID,90,VALID,0.651105,
2004-12-11, 00:15:00,VALID,918.633,VALID,0,VALID,100,VALID,0,VALID,19.8505,VALID,85,VALID,0.765092,
2004-12-11, 00:16:00,VALID,918.624,VALID,0,VALID,100,VALID,-0.0339617,VALID,19.8468,VALID,85,VALID,0.677455,
2004-12-11, 00:17:00,VALID,918.619,VALID,0,VALID,100,VALID,-0.0339617,VALID,19.8664,VALID,85,VALID,0.601753,
2004-12-11, 00:18:00,VALID,918.602,VALID,0,VALID,100,VALID,0.0169808,VALID,19.8726,VALID,85,VALID,0.621354,
2004-12-11, 00:19:00,VALID,918.593,VALID,0,VALID,100,VALID,0.0339617,VALID,19.8823,VALID,85,VALID,0.583734,
2004-12-11, 00:20:00,VALID,918.565,VALID,0,VALID,100,VALID,0.0169808,VALID,19.899,VALID,87,VALID,0.637835,
2004-12-11, 00:21:00,VALID,918.557,VALID,0,VALID,100,VALID,0,VALID,19.8861,VALID,91,VALID,0.664435,
2004-12-11, 00:22:00,VALID,918.556,VALID,0,VALID,100,VALID,0.0509425,VALID,19.8689,VALID,91,VALID,0.51181,
2004-12-11, 00:23:00,VALID,918.553,VALID,0,VALID,100,VALID,0,VALID,19.8463,VALID,93,VALID,0.647507,
2004-12-11, 00:24:00,VALID,918.549,VALID,0,VALID,100,VALID,0,VALID,19.8242,VALID,104,VALID,0.783612,
2004-12-11, 00:25:00,VALID,918.532,VALID,0,VALID,100,VALID,0,VALID,19.8182,VALID,104,VALID,0.671875,
2004-12-11, 00:26:00,VALID,918.526,VALID,0,VALID,100,VALID,0,VALID,19.815,VALID,104,VALID,0.797743,
2004-12-11, 00:27:00,VALID,918.518,VALID,0,VALID,100,VALID,0,VALID,19.8282,VALID,104,VALID,0.751524,
2004-12-11, 00:28:00,VALID,918.517,VALID,0,VALID,100,VALID,0,VALID,19.8148,VALID,104,VALID,0.533975,
2004-12-11, 00:29:00,VALID,918.522,VALID,0,VALID,100,VALID,0,VALID,19.812,VALID,95,VALID,0.392721,
2004-12-11, 00:30:00,VALID,918.525,VALID,0,VALID,100,VALID,0,VALID,19.7889,VALID,95,VALID,0.487537,
2004-12-11, 00:31:00,VALID,918.531,VALID,0,VALID,100,VALID,0.0169808,VALID,19.7862,VALID,88,VALID,0.392299,
2004-12-11, 00:32:00,VALID,918.541,VALID,0,VALID,100,VALID,-0.0169808,VALID,19.7313,VALID,82,VALID,0.398047,
2004-12-11, 00:33:00,VALID,918.547,VALID,0,VALID,100,VALID,-0.0849042,VALID,19.6709,VALID,82,VALID,0.304116,
2004-12-11, 00:34:00,VALID,918.565,VALID,0,VALID,100,VALID,-0.101885,VALID,19.6741,VALID,82,VALID,0.49721,
2004-12-11, 00:35:00,VALID,918.555,VALID,0,VALID,100,VALID,-0.0849042,VALID,19.7097,VALID,103,VALID,0.681046,
2004-12-11, 00:36:00,VALID,918.564,VALID,0,VALID,100,VALID,-0.101885,VALID,19.7323,VALID,114,VALID,0.545898,
2004-12-11, 00:37:00,VALID,918.558,VALID,0,VALID,100,VALID,-0.101885,VALID,19.7226,VALID,114,VALID,0.581182,
2004-12-11, 00:38:00,VALID,918.558,VALID,0,VALID,100,VALID,-0.101885,VALID,19.7166,VALID,114,VALID,0.590661,
2004-12-11, 00:39:00,VALID,918.559,VALID,0,VALID,100,VALID,-0.0679233,VALID,19.6903,VALID,114,VALID,0.618963,
2004-12-11, 00:40:00,VALID,918.564,VALID,0,VALID,100,VALID,-0.0849042,VALID,19.7067,VALID,114,VALID,0.707031,
2004-12-11, 00:41:00,VALID,918.554,VALID,0,VALID,100,VALID,-0.0849042,VALID,19.7196,VALID,114,VALID,0.740589,
2004-12-11, 00:42:00,VALID,918.551,VALID,0,VALID,100,VALID,-0.0849042,VALID,19.736,VALID,114,VALID,0.751272,
2004-12-11, 00:43:00,VALID,918.566,VALID,0,VALID,100,VALID,-0.0849042,VALID,19.7425,VALID,114,VALID,0.651708,
2004-12-11, 00:44:00,VALID,918.558,VALID,0,VALID,100,VALID,-0.0849042,VALID,19.7522,VALID,114,VALID,0.777344,
2004-12-11, 00:45:00,VALID,918.552,VALID,0,VALID,100,VALID,-0.101885,VALID,19.7618,VALID,114,VALID,0.703887,
2004-12-11, 00:46:00,VALID,918.536,VALID,0,VALID,100,VALID,-0.101885,VALID,19.7678,VALID,114,VALID,0.463778,
2004-12-11, 00:47:00,VALID,918.536,VALID,0,VALID,100,VALID,-0.0679233,VALID,19.7643,VALID,114,VALID,0.481213,
2004-12-11, 00:48:00,VALID,918.53,VALID,0,VALID,100,VALID,0,VALID,19.77,VALID,125,VALID,0.677827,
2004-12-11, 00:49:00,VALID,918.506,VALID,0,VALID,100,VALID,0.0169808,VALID,19.7765,VALID,133,VALID,0.606105,
2004-12-11, 00:50:00,VALID,918.491,VALID,0,VALID,100,VALID,0,VALID,19.7601,VALID,133,VALID,0.583651,
2004-12-11, 00:51:00,VALID,918.473,VALID,0,VALID,100,VALID,0.0169808,VALID,19.7569,VALID,132,VALID,0.424924,
2004-12-11, 00:52:00,VALID,918.451,VALID,0,VALID,100,VALID,0,VALID,19.7305,VALID,130,VALID,0.529204,
2004-12-11, 00:53:00,VALID,918.438,VALID,0,VALID,100,VALID,0.0339617,VALID,19.731,VALID,127,VALID,0.57269,
2004-12-11, 00:54:00,VALID,918.415,VALID,0,VALID,100,VALID,0.0169808,VALID,19.7246,VALID,126,VALID,0.805959,
2004-12-11, 00:55:00,VALID,918.397,VALID,0,VALID,100,VALID,0.0169808,VALID,19.7273,VALID,124,VALID,0.6875,
2004-12-11, 00:56:00,VALID,918.36,VALID,0,VALID,100,VALID,0.0169808,VALID,19.7283,VALID,120,VALID,0.845526,
2004-12-11, 00:57:00,VALID,918.347,VALID,0,VALID,100,VALID,0,VALID,19.7278,VALID,112,VALID,0.776989,
2004-12-11, 00:58:00,VALID,918.33,VALID,0,VALID,100,VALID,-0.0169808,VALID,19.7149,VALID,109,VALID,0.914418,
2004-12-11, 00:59:00,VALID,918.314,VALID,0,VALID,100,VALID,-0.0339617,VALID,19.7149,VALID,111,VALID,0.868676,
2004-12-11, 01:00:00,VALID,918.303,VALID,0,VALID,100,VALID,0,VALID,19.7151,VALID,120,VALID,1.09268,
2004-12-11, 01:01:00,VALID,918.304,VALID,0,VALID,100,VALID,0.0169808,VALID,19.7122,VALID,124,VALID,0.856055,
2004-12-11, 01:02:00,VALID,918.284,VALID,0,VALID,100,VALID,0,VALID,19.6958,VALID,118,VALID,0.688643,
2004-12-11, 01:03:00,VALID,918.276,VALID,0,VALID,100,VALID,0,VALID,19.6955,VALID,133,VALID,0.638951,
2004-12-11, 01:04:00,VALID,918.262,VALID,0,VALID,100,VALID,0,VALID,19.6828,VALID,132,VALID,0.531783,
2004-12-11, 01:05:00,VALID,918.239,VALID,0,VALID,100,VALID,0.0169808,VALID,19.6761,VALID,131,VALID,0.713246,
2004-12-11, 01:06:00,VALID,918.201,VALID,0,VALID,100,VALID,0.0169808,VALID,19.6632,VALID,123,VALID,0.695685,
2004-12-11, 01:07:00,VALID,918.177,VALID,0,VALID,100,VALID,0,VALID,19.6635,VALID,117,VALID,0.882254,
2004-12-11, 01:08:00,VALID,918.161,VALID,0,VALID,100,VALID,0.0169808,VALID,19.6597,VALID,116,VALID,1.10956,
2004-12-11, 01:09:00,VALID,918.144,VALID,0,VALID,100,VALID,0,VALID,19.6729,VALID,116,VALID,1.09938,
2004-12-11, 01:10:00,VALID,918.14,VALID,0,VALID,100,VALID,0.0339617,VALID,19.6759,VALID,116,VALID,1.17097,
2004-12-11, 01:11:00,VALID,918.122,VALID,0,VALID,100,VALID,0.0339617,VALID,19.6858,VALID,117,VALID,1.16708,
2004-12-11, 01:12:00,VALID,918.116,VALID,0,VALID,100,VALID,0.0169808,VALID,19.6796,VALID,119,VALID,0.840116,
2004-12-11, 01:13:00,VALID,918.1,VALID,0,VALID,100,VALID,0,VALID,19.66,VALID,114,VALID,0.93418,
2004-12-11, 01:14:00,VALID,918.086,VALID,0,VALID,100,VALID,0,VALID,19.6436,VALID,131,VALID,0.71059,
2004-12-11, 01:15:00,VALID,918.052,VALID,0,VALID,100,VALID,0.0169808,VALID,19.6438,VALID,132,VALID,0.922965,
2004-12-11, 01:16:00,VALID,918.029,VALID,0,VALID,100,VALID,0,VALID,19.6309,VALID,126,VALID,0.924132,
2004-12-11, 01:17:00,VALID,918.003,VALID,0,VALID,100,VALID,0.0169808,VALID,19.6274,VALID,127,VALID,0.922447,
2004-12-11, 01:18:00,VALID,917.972,VALID,0,VALID,100,VALID,0.0169808,VALID,19.6245,VALID,127,VALID,0.642531,
2004-12-11, 01:19:00,VALID,917.938,VALID,0,VALID,100,VALID,0.0339617,VALID,19.6279,VALID,109,VALID,0.459201,
2004-12-11, 01:20:00,VALID,917.91,VALID,0,VALID,100,VALID,0.0679233,VALID,19.6046,VALID,109,VALID,0.340104,
2004-12-11, 01:21:00,VALID,917.905,VALID,0,VALID,100,VALID,0.0339617,VALID,19.6053,VALID,109,VALID,0.100694,
2004-12-11, 01:22:00,VALID,917.875,VALID,0,VALID,100,VALID,0,VALID,19.5954,VALID,109,VALID,0,
2004-12-11, 01:23:00,VALID,917.844,VALID,0,VALID,100,VALID,0,VALID,19.579,VALID,109,VALID,0,
2004-12-11, 01:24:00,VALID,917.823,VALID,0,VALID,100,VALID,0,VALID,19.5889,VALID,109,VALID,0,
2004-12-11, 01:25:00,VALID,917.792,VALID,0,VALID,100,VALID,0,VALID,19.5663,VALID,109,VALID,0,
2004-12-11, 01:26:00,VALID,917.78,VALID,0,VALID,100,VALID,0.0339617,VALID,19.5502,VALID,109,VALID,0,
2004-12-11, 01:27:00,VALID,917.765,VALID,0,VALID,100,VALID,0,VALID,19.5504,VALID,109,VALID,0,
2004-12-11, 01:28:00,VALID,917.742,VALID,0,VALID,100,VALID,0,VALID,19.544,VALID,109,VALID,0,
2004-12-11, 01:29:00,VALID,917.721,VALID,0,VALID,100,VALID,0.0169808,VALID,19.5469,VALID,109,VALID,0,
2004-12-11, 01:30:00,VALID,917.716,VALID,0,VALID,100,VALID,0.0169808,VALID,19.5469,VALID,109,VALID,0,
2004-12-11, 01:31:00,VALID,917.711,VALID,0,VALID,100,VALID,0.0509425,VALID,19.5432,VALID,109,VALID,0.58133,
2004-12-11, 01:32:00,VALID,917.698,VALID,0,VALID,100,VALID,0,VALID,19.5114,VALID,109,VALID,0.0571181,
2004-12-11, 01:33:00,VALID,917.698,VALID,0,VALID,100,VALID,0.0169808,VALID,19.46,VALID,109,VALID,0,
2004-12-11, 01:34:00,VALID,917.706,VALID,0,VALID,100,VALID,0.0509425,VALID,19.4111,VALID,109,VALID,0,
2004-12-11, 01:35:00,VALID,917.691,VALID,0,VALID,100,VALID,0,VALID,19.3788,VALID,109,VALID,0,
2004-12-11, 01:36:00,VALID,917.7,VALID,0,VALID,100,VALID,0,VALID,19.3661,VALID,109,VALID,0,
2004-12-11, 01:37:00,VALID,917.71,VALID,0,VALID,100,VALID,0,VALID,19.3537,VALID,109,VALID,0,
2004-12-11, 01:38:00,VALID,917.702,VALID,0,VALID,100,VALID,0,VALID,19.3249,VALID,109,VALID,0,
2004-12-11, 01:39:00,VALID,917.696,VALID,0,VALID,100,VALID,0,VALID,19.2888,VALID,109,VALID,0.0113467,
2004-12-11, 01:40:00,VALID,917.678,VALID,0,VALID,100,VALID,0.0339617,VALID,19.2725,VALID,109,VALID,0.224466,
2004-12-11, 01:41:00,VALID,917.678,VALID,0,VALID,100,VALID,0.0339617,VALID,19.2826,VALID,109,VALID,0.132254,
2004-12-11, 01:42:00,VALID,917.665,VALID,0,VALID,100,VALID,0.0169808,VALID,19.2799,VALID,109,VALID,0,
2004-12-11, 01:43:00,VALID,917.659,VALID,0,VALID,100,VALID,0.0339617,VALID,19.2593,VALID,109,VALID,0,
2004-12-11, 01:44:00,VALID,917.661,VALID,0,VALID,100,VALID,0.0169808,VALID,19.2635,VALID,109,VALID,0,
2004-12-11, 01:45:00,VALID,917.645,VALID,0,VALID,100,VALID,0.0169808,VALID,19.2503,VALID,109,VALID,0,
2004-12-11, 01:46:00,VALID,917.62,VALID,0,VALID,100,VALID,0.0339617,VALID,19.2431,VALID,109,VALID,0.0563227,
2004-12-11, 01:47:00,VALID,917.615,VALID,0,VALID,100,VALID,0.0169808,VALID,19.3052,VALID,109,VALID,0.357227,
2004-12-11, 01:48:00,VALID,917.586,VALID,0,VALID,100,VALID,-0.101885,VALID,19.3648,VALID,109,VALID,0.347929,
2004-12-11, 01:49:00,VALID,917.558,VALID,0,VALID,100,VALID,-0.0849042,VALID,19.3904,VALID,109,VALID,0.397529,
2004-12-11, 01:50:00,VALID,917.518,VALID,0,VALID,100,VALID,-0.101885,VALID,19.41,VALID,109,VALID,0.332403,
2004-12-11, 01:51:00,VALID,917.49,VALID,0,VALID,100,VALID,-0.0509425,VALID,19.4036,VALID,109,VALID,0.442294,
2004-12-11, 01:52:00,VALID,917.462,VALID,0,VALID,100,VALID,-0.0679233,VALID,19.3936,VALID,111,VALID,0.632626,
2004-12-11, 01:53:00,VALID,917.452,VALID,0,VALID,100,VALID,-0.0509425,VALID,19.3934,VALID,122,VALID,0.872713,
2004-12-11, 01:54:00,VALID,917.437,VALID,0,VALID,100,VALID,-0.0339617,VALID,19.4061,VALID,128,VALID,0.766369,
2004-12-11, 01:55:00,VALID,917.417,VALID,0,VALID,100,VALID,-0.0849042,VALID,19.4192,VALID,131,VALID,0.959821,
2004-12-11, 01:56:00,VALID,917.403,VALID,0,VALID,100,VALID,-0.0339617,VALID,19.4319,VALID,128,VALID,1.0888,
2004-12-11, 01:57:00,VALID,917.379,VALID,0,VALID,100,VALID,-0.0339617,VALID,19.4513,VALID,121,VALID,0.803516,
2004-12-11, 01:58:00,VALID,917.36,VALID,0,VALID,100,VALID,-0.0679233,VALID,19.4808,VALID,115,VALID,0.808594,
2004-12-11, 01:59:00,VALID,917.351,VALID,0,VALID,100,VALID,-0.0339617,VALID,19.4707,VALID,124,VALID,0.478016,
2004-12-11, 02:00:00,VALID,917.335,VALID,0,VALID,100,VALID,-0.0509425,VALID,19.4602,VALID,110,VALID,1.01563,
2004-12-11, 02:01:00,VALID,917.306,VALID,0,VALID,100,VALID,-0.0679233,VALID,19.4903,VALID,115,VALID,0.507102,
2004-12-11, 02:02:00,VALID,917.287,VALID,0,VALID,100,VALID,-0.0509425,VALID,19.4938,VALID,111,VALID,0.442294,
2004-12-11, 02:03:00,VALID,917.261,VALID,0,VALID,100,VALID,0.0509425,VALID,19.502,VALID,119,VALID,0.558408,
2004-12-11, 02:04:00,VALID,917.254,VALID,0,VALID,100,VALID,0.0339617,VALID,19.5186,VALID,121,VALID,0.904916,
2004-12-11, 02:05:00,VALID,917.246,VALID,0,VALID,100,VALID,0.0169808,VALID,19.505,VALID,123,VALID,0.836914,
2004-12-11, 02:06:00,VALID,917.222,VALID,0,VALID,100,VALID,0.0339617,VALID,19.5181,VALID,125,VALID,0.714177,
2004-12-11, 02:07:00,VALID,917.221,VALID,0,VALID,100,VALID,0.0339617,VALID,19.5278,VALID,119,VALID,0.759415,
2004-12-11, 02:08:00,VALID,917.208,VALID,0,VALID,100,VALID,0.0679233,VALID,19.5144,VALID,129,VALID,0.715298,
2004-12-11, 02:09:00,VALID,917.192,VALID,0,VALID,100,VALID,0.0169808,VALID,19.5243,VALID,133,VALID,0.732955,
2004-12-11, 02:10:00,VALID,917.187,VALID,0,VALID,100,VALID,0.0339617,VALID,19.5306,VALID,114,VALID,0.746548,
2004-12-11, 02:11:00,VALID,917.164,VALID,0,VALID,100,VALID,0.0509425,VALID,19.5375,VALID,119,VALID,0.507241,
2004-12-11, 02:12:00,VALID,917.153,VALID,0,VALID,100,VALID,0.0509425,VALID,19.534,VALID,137,VALID,0.474848,
2004-12-11, 02:13:00,VALID,917.143,VALID,0,VALID,100,VALID,0.0509425,VALID,19.534,VALID,144,VALID,0.35016,
2004-12-11, 02:14:00,VALID,917.131,VALID,0,VALID,100,VALID,0.0339617,VALID,19.5412,VALID,147,VALID,0.118862,
2004-12-11, 02:15:00,VALID,917.131,VALID,0,VALID,100,VALID,0.0169808,VALID,19.5412,VALID,147,VALID,0.0282738,
2004-12-11, 02:16:00,VALID,917.129,VALID,0,VALID,100,VALID,0.0339617,VALID,19.5241,VALID,147,VALID,0.00109012,
2004-12-11, 02:17:00,VALID,917.122,VALID,0,VALID,100,VALID,0.0339617,VALID,19.5306,VALID,147,VALID,0,
2004-12-11, 02:18:00,VALID,917.114,VALID,0,VALID,100,VALID,-0.0509425,VALID,19.5219,VALID,147,VALID,0,
2004-12-11, 02:19:00,VALID,917.128,VALID,0,VALID,100,VALID,-0.0169808,VALID,19.5089,VALID,147,VALID,0,
2004-12-11, 02:20:00,VALID,917.122,VALID,0,VALID,100,VALID,-0.0339617,VALID,19.5122,VALID,147,VALID,0,
2004-12-11, 02:21:00,VALID,917.126,VALID,0,VALID,100,VALID,0,VALID,19.4928,VALID,147,VALID,0,
2004-12-11, 02:22:00,VALID,917.112,VALID,0,VALID,100,VALID,-0.0169808,VALID,19.4928,VALID,147,VALID,0.047247,
2004-12-11, 02:23:00,VALID,917.104,VALID,0,VALID,100,VALID,-0.0339617,VALID,19.4734,VALID,154,VALID,0.355824,
2004-12-11, 02:24:00,VALID,917.097,VALID,0,VALID,100,VALID,-0.0169808,VALID,19.4669,VALID,191,VALID,0.441883,
2004-12-11, 02:25:00,VALID,917.096,VALID,0,VALID,100,VALID,0,VALID,19.4535,VALID,214,VALID,0.585764,
2004-12-11, 02:26:00,VALID,917.1,VALID,0,VALID,100,VALID,-0.0339617,VALID,19.4508,VALID,214,VALID,0.46224,
2004-12-11, 02:27:00,VALID,917.09,VALID,0,VALID,100,VALID,0,VALID,19.4565,VALID,212,VALID,0.431212,
2004-12-11, 02:28:00,VALID,917.093,VALID,0,VALID,100,VALID,-0.0339617,VALID,19.4573,VALID,217,VALID,0.567472,
2004-12-11, 02:29:00,VALID,917.08,VALID,0,VALID,100,VALID,-0.0169808,VALID,19.4503,VALID,200,VALID,0.735978,
2004-12-11, 02:30:00,VALID,917.079,VALID,0,VALID,100,VALID,-0.0169808,VALID,19.4635,VALID,183,VALID,0.701527,
2004-12-11, 02:31:00,VALID,917.068,VALID,0,VALID,100,VALID,0,VALID,19.4697,VALID,199,VALID,0.426067,
2004-12-11, 02:32:00,VALID,917.07,VALID,0,VALID,100,VALID,-0.0339617,VALID,19.4665,VALID,189,VALID,0.235828,
2004-12-11, 02:33:00,VALID,917.055,VALID,0,VALID,100,VALID,-0.0169808,VALID,19.46,VALID,150,VALID,0.516897,
2004-12-11, 02:34:00,VALID,917.055,VALID,0,VALID,100,VALID,0,VALID,19.46,VALID,163,VALID,0.528773,
2004-12-11, 02:35:00,VALID,917.061,VALID,0,VALID,100,VALID,0,VALID,19.4697,VALID,171,VALID,0.87157,
2004-12-11, 02:36:00,VALID,917.066,VALID,0,VALID,100,VALID,-0.0509425,VALID,19.4769,VALID,171,VALID,0.457485,
2004-12-11, 02:37:00,VALID,917.056,VALID,0,VALID,100,VALID,-0.0339617,VALID,19.4635,VALID,143,VALID,0.469097,
2004-12-11, 02:38:00,VALID,917.06,VALID,0,VALID,100,VALID,0,VALID,19.4672,VALID,136,VALID,0.716146,
2004-12-11, 02:39:00,VALID,917.051,VALID,0,VALID,100,VALID,0,VALID,19.4533,VALID,126,VALID,0.612282,
2004-12-11, 02:40:00,VALID,917.046,VALID,0,VALID,100,VALID,-0.0339617,VALID,19.4506,VALID,136,VALID,0.759588,
2004-12-11, 02:41:00,VALID,917.041,VALID,0,VALID,100,VALID,-0.0169808,VALID,19.4441,VALID,127,VALID,0.667696,
2004-12-11, 02:42:00,VALID,917.036,VALID,0,VALID,100,VALID,0,VALID,19.4637,VALID,129,VALID,0.783681,
2004-12-11, 02:43:00,VALID,917.048,VALID,0,VALID,100,VALID,-0.0339617,VALID,19.4669,VALID,139,VALID,0.634993,
2004-12-11, 02:44:00,VALID,917.044,VALID,0,VALID,100,VALID,-0.0169808,VALID,19.4635,VALID,142,VALID,0.560938,
2004-12-11, 02:45:00,VALID,917.042,VALID,0,VALID,100,VALID,-0.0509425,VALID,19.4632,VALID,142,VALID,0.841712,
2004-12-11, 02:46:00,VALID,917.04,VALID,0,VALID,100,VALID,-0.0169808,VALID,19.4826,VALID,142,VALID,0.858974,
2004-12-11, 02:47:00,VALID,917.024,VALID,0,VALID,100,VALID,0,VALID,19.4851,VALID,138,VALID,0.554306,
2004-12-11, 02:48:00,VALID,917.015,VALID,0,VALID,100,VALID,0.101885,VALID,19.4908,VALID,138,VALID,0.968387,
2004-12-11, 02:49:00,VALID,917.002,VALID,0,VALID,100,VALID,0.0849042,VALID,19.5037,VALID,124,VALID,0.648264,
2004-12-11, 02:50:00,VALID,917.001,VALID,0,VALID,100,VALID,0.0679233,VALID,19.5107,VALID,129,VALID,1.26786,
2004-12-11, 02:51:00,VALID,916.985,VALID,0,VALID,100,VALID,0.0679233,VALID,19.5263,VALID,131,VALID,1.06399,
2004-12-11, 02:52:00,VALID,916.984,VALID,0,VALID,100,VALID,0.0849042,VALID,19.543,VALID,120,VALID,0.673328,
2004-12-11, 02:53:00,VALID,916.984,VALID,0,VALID,100,VALID,0.0849042,VALID,19.536,VALID,107,VALID,0.197917,
2004-12-11, 02:54:00,VALID,916.993,VALID,0,VALID,100,VALID,0.101885,VALID,19.5263,VALID,115,VALID,0.216273,
2004-12-11, 02:55:00,VALID,916.994,VALID,0,VALID,100,VALID,0.0509425,VALID,19.5296,VALID,117,VALID,0,
2004-12-11, 02:56:00,VALID,916.982,VALID,0,VALID,100,VALID,0.0679233,VALID,19.536,VALID,117,VALID,0,
2004-12-11, 02:57:00,VALID,916.969,VALID,0,VALID,100,VALID,0.101885,VALID,19.5358,VALID,117,VALID,0,
2004-12-11, 02:58:00,VALID,916.957,VALID,0,VALID,100,VALID,0.101885,VALID,19.5393,VALID,117,VALID,0,
2004-12-11, 02:59:00,VALID,916.947,VALID,0,VALID,100,VALID,0.101885,VALID,19.5395,VALID,117,VALID,0,
2004-12-11, 03:00:00,VALID,916.95,VALID,0,VALID,100,VALID,0.0339617,VALID,19.5494,VALID,117,VALID,0,
2004-12-11, 03:01:00,VALID,916.956,VALID,0,VALID,100,VALID,0.0679233,VALID,19.546,VALID,117,VALID,0,
2004-12-11, 03:02:00,VALID,916.956,VALID,0,VALID,100,VALID,0.0849042,VALID,19.5494,VALID,117,VALID,0.00213068,
2004-12-11, 03:03:00,VALID,916.964,VALID,0,VALID,100,VALID,-0.0339617,VALID,19.5378,VALID,117,VALID,0,
2004-12-11, 03:04:00,VALID,916.969,VALID,0,VALID,100,VALID,0.0169808,VALID,19.5378,VALID,117,VALID,0.263317,
2004-12-11, 03:05:00,VALID,916.971,VALID,0,VALID,100,VALID,0,VALID,19.5442,VALID,117,VALID,0.449805,
2004-12-11, 03:06:00,VALID,916.965,VALID,0,VALID,100,VALID,-0.0339617,VALID,19.5343,VALID,140,VALID,0.495998,
2004-12-11, 03:07:00,VALID,916.961,VALID,0,VALID,100,VALID,-0.0339617,VALID,19.5469,VALID,140,VALID,0.899609,
2004-12-11, 03:08:00,VALID,916.964,VALID,0,VALID,100,VALID,0,VALID,19.5569,VALID,129,VALID,0.682292,
2004-12-11, 03:09:00,VALID,916.945,VALID,0,VALID,100,VALID,-0.0169808,VALID,19.5507,VALID,113,VALID,0.54566,
2004-12-11, 03:10:00,VALID,916.934,VALID,0,VALID,100,VALID,-0.0169808,VALID,19.5343,VALID,105,VALID,0.344893,
2004-12-11, 03:11:00,VALID,916.94,VALID,0,VALID,100,VALID,0,VALID,19.5313,VALID,56,VALID,0.479403,
2004-12-11, 03:12:00,VALID,916.941,VALID,0,VALID,100,VALID,-0.0169808,VALID,19.502,VALID,87,VALID,0.703125,
2004-12-11, 03:13:00,VALID,916.947,VALID,0,VALID,100,VALID,-0.0169808,VALID,19.4958,VALID,98,VALID,0.609028,
2004-12-11, 03:14:00,VALID,916.955,VALID,0,VALID,100,VALID,0,VALID,19.4988,VALID,91,VALID,0.616443,
2004-12-11, 03:15:00,VALID,916.962,VALID,0,VALID,100,VALID,-0.0169808,VALID,19.4796,VALID,67,VALID,0.231136,
2004-12-11, 03:16:00,VALID,916.968,VALID,0,VALID,100,VALID,0,VALID,19.4729,VALID,91,VALID,0.292696,
2004-12-11, 03:17:00,VALID,916.954,VALID,0,VALID,100,VALID,0,VALID,19.4727,VALID,111,VALID,0.432692,
2004-12-11, 03:18:00,VALID,916.948,VALID,0,VALID,100,VALID,0.0339617,VALID,19.4853,VALID,140,VALID,0.319222,
2004-12-11, 03:19:00,VALID,916.933,VALID,0,VALID,100,VALID,0,VALID,19.4985,VALID,134,VALID,0.72061,
2004-12-11, 03:20:00,VALID,916.914,VALID,0,VALID,100,VALID,-0.0169808,VALID,19.4918,VALID,125,VALID,0.608803,
2004-12-11, 03:21:00,VALID,916.9,VALID,0,VALID,100,VALID,-0.0169808,VALID,19.5117,VALID,123,VALID,0.561012,
2004-12-11, 03:22:00,VALID,916.887,VALID,0,VALID,100,VALID,0,VALID,19.5149,VALID,137,VALID,1.1252,
2004-12-11, 03:23:00,VALID,916.885,VALID,0,VALID,100,VALID,0,VALID,19.5079,VALID,143,VALID,0.759943,
2004-12-11, 03:24:00,VALID,916.864,VALID,0,VALID,100,VALID,0,VALID,19.5082,VALID,135,VALID,0.311592,
2004-12-11, 03:25:00,VALID,916.863,VALID,0,VALID,100,VALID,0,VALID,19.5087,VALID,126,VALID,0.528963,
2004-12-11, 03:26:00,VALID,916.856,VALID,0,VALID,100,VALID,0.0169808,VALID,19.4856,VALID,121,VALID,0.278963,
2004-12-11, 03:27:00,VALID,916.845,VALID,0,VALID,100,VALID,0.0169808,VALID,19.4722,VALID,119,VALID,0.417969,
2004-12-11, 03:28:00,VALID,916.844,VALID,0,VALID,100,VALID,0.0169808,VALID,19.4727,VALID,118,VALID,0.319957,
2004-12-11, 03:29:00,VALID,916.849,VALID,0,VALID,100,VALID,0.0169808,VALID,19.4531,VALID,117,VALID,0.512463,
2004-12-11, 03:30:00,VALID,916.844,VALID,0,VALID,100,VALID,0.0169808,VALID,19.4498,VALID,133,VALID,0.479106,
2004-12-11, 03:31:00,VALID,916.854,VALID,0,VALID,100,VALID,0,VALID,19.457,VALID,133,VALID,0.383557,
2004-12-11, 03:32:00,VALID,916.854,VALID,0,VALID,100,VALID,0.0169808,VALID,19.4538,VALID,115,VALID,0.518043,
2004-12-11, 03:33:00,VALID,916.851,VALID,0,VALID,100,VALID,0,VALID,19.4503,VALID,122,VALID,0.618164,
2004-12-11, 03:34:00,VALID,916.843,VALID,0,VALID,100,VALID,-0.0169808,VALID,19.4632,VALID,139,VALID,0.617001,
2004-12-11, 03:35:00,VALID,916.838,VALID,0,VALID,100,VALID,0.0169808,VALID,19.4657,VALID,145,VALID,0.852805,
2004-12-11, 03:36:00,VALID,916.84,VALID,0,VALID,100,VALID,0,VALID,19.4724,VALID,143,VALID,0.827217,
2004-12-11, 03:37:00,VALID,916.848,VALID,0,VALID,100,VALID,0.0169808,VALID,19.4856,VALID,143,VALID,0.620458,
2004-12-11, 03:38:00,VALID,916.848,VALID,0,VALID,100,VALID,0.0169808,VALID,19.4858,VALID,123,VALID,0.391927,
2004-12-11, 03:39:00,VALID,916.842,VALID,0,VALID,100,VALID,0,VALID,19.499,VALID,134,VALID,0.809524,
2004-12-11, 03:40:00,VALID,916.831,VALID,0,VALID,100,VALID,0.0169808,VALID,19.4955,VALID,136,VALID,0.858994,
2004-12-11, 03:41:00,VALID,916.816,VALID,0,VALID,100,VALID,0,VALID,19.5151,VALID,128,VALID,0.919695,
2004-12-11, 03:42:00,VALID,916.805,VALID,0,VALID,100,VALID,0,VALID,19.5184,VALID,125,VALID,0.675347,
2004-12-11, 03:43:00,VALID,916.783,VALID,0,VALID,100,VALID,0,VALID,19.5219,VALID,111,VALID,0.734566,